| time (UTC) | temp F | wind direction | speed knots | gust knots | rain 1hr in | rain 24hr in | rain mn in | humidity % | barometer mb |
| 20260505075342 | 48 | 350 | 0.0 | 0.9 | 0.00 | 0.00 | 0.00 | 79 | 1007.5 |
| 20260505074840 | 48 | 350 | 0.0 | 0.9 | 0.00 | 0.00 | 0.00 | 79 | 1007.6 |
| 20260505074337 | 48 | 350 | 0.0 | 1.7 | 0.00 | 0.00 | 0.00 | 77 | 1007.7 |
| 20260505073834 | 48 | 349 | 0.9 | 1.7 | 0.00 | 0.00 | 0.00 | 76 | 1007.6 |
| 20260505073332 | 48 | 8 | 3.5 | 4.3 | 0.00 | 0.00 | 0.00 | 74 | 1007.9 |
| 20260505072829 | 48 | 15 | 0.9 | 5.2 | 0.00 | 0.00 | 0.00 | 75 | 1008.0 |
| 20260505072325 | 48 | 347 | 2.6 | 4.3 | 0.00 | 0.00 | 0.00 | 73 | 1008.2 |
| 20260505071821 | 49 | 347 | 1.7 | 8.7 | 0.00 | 0.00 | 0.00 | 70 | 1008.0 |
| 20260505071317 | 49 | 354 | 2.6 | 5.2 | 0.00 | 0.00 | 0.00 | 68 | 1008.2 |
| 20260505070816 | 50 | 9 | 3.5 | 6.1 | 0.00 | 0.00 | 0.00 | 66 | 1008.3 |
| 20260505070312 | 50 | 25 | 5.2 | 8.7 | 0.00 | 0.00 | 0.00 | 63 | 1008.3 |
| 20260505065807 | 50 | 14 | 4.3 | 11.3 | 0.00 | 0.00 | 0.00 | 64 | 1008.3 |
| 20260505065304 | 50 | 340 | 8.7 | 13.0 | 0.00 | 0.00 | 0.00 | 63 | 1008.4 |
| 20260505064801 | 50 | 13 | 6.1 | 13.9 | 0.00 | 0.00 | 0.00 | 62 | 1008.1 |
| 20260505064258 | 51 | 29 | 9.6 | 13.9 | 0.00 | 0.00 | 0.00 | 61 | 1008.4 |
| 20260505063756 | 51 | 359 | 6.1 | 12.2 | 0.00 | 0.00 | 0.00 | 62 | 1008.5 |
| 20260505063252 | 51 | 10 | 5.2 | 7.0 | 0.00 | 0.00 | 0.00 | 61 | 1008.5 |
| 20260505062748 | 51 | 3 | 5.2 | 12.2 | 0.00 | 0.00 | 0.00 | 58 | 1008.0 |
| 20260505062241 | 52 | 6 | 7.8 | 8.7 | 0.00 | 0.00 | 0.00 | 58 | 1007.9 |
| 20260505061737 | 52 | 11 | 7.0 | 8.7 | 0.00 | 0.00 | 0.00 | 57 | 1008.4 |
| 20260505061235 | 52 | 264 | 5.2 | 7.8 | 0.00 | 0.00 | 0.00 | 54 | 1008.4 |
| 20260505060732 | 53 | 15 | 2.6 | 12.2 | 0.00 | 0.00 | 0.00 | 54 | 1008.5 |
| 20260505060229 | 53 | 343 | 7.8 | 11.3 | 0.00 | 0.00 | 0.00 | 53 | 1008.6 |
| 20260505055724 | 53 | 10 | 6.1 | 11.3 | 0.00 | 0.00 | 0.00 | 53 | 1008.6 |
| 20260505055221 | 53 | 2 | 7.0 | 8.7 | 0.00 | 0.00 | 0.00 | 52 | 1008.5 |
| 20260505054719 | 54 | 339 | 2.6 | 7.0 | 0.00 | 0.00 | 0.00 | 51 | 1008.5 |
| 20260505054216 | 54 | 344 | 4.3 | 11.3 | 0.00 | 0.00 | 0.00 | 49 | 1008.3 |
| 20260505053714 | 54 | 26 | 4.3 | 13.9 | 0.00 | 0.00 | 0.00 | 48 | 1008.0 |
| 20260505053210 | 54 | 354 | 5.2 | 7.0 | 0.00 | 0.00 | 0.00 | 49 | 1008.1 |
| 20260505052708 | 54 | 358 | 6.1 | 7.8 | 0.00 | 0.00 | 0.00 | 49 | 1007.8 |
| 20260505052204 | 54 | 338 | 7.0 | 11.3 | 0.00 | 0.00 | 0.00 | 49 | 1007.6 |
| 20260505051702 | 54 | 355 | 5.2 | 11.3 | 0.00 | 0.00 | 0.00 | 50 | 1007.7 |
| 20260505051159 | 54 | 330 | 6.1 | 13.9 | 0.00 | 0.00 | 0.00 | 50 | 1007.4 |
| 20260505050651 | 55 | 11 | 13.0 | 14.8 | 0.00 | 0.00 | 0.00 | 49 | 1006.9 |
| 20260505050149 | 55 | 21 | 12.2 | 13.9 | 0.00 | 0.00 | 0.00 | 49 | 1007.1 |
| 20260505041618 | 56 | 15 | 7.0 | 15.6 | 0.00 | 0.00 | 0.00 | 45 | 1007.1 |
| 20260505041115 | 56 | 15 | 8.7 | 12.2 | 0.00 | 0.00 | 0.00 | 45 | 1007.2 |
| 20260505040613 | 56 | 13 | 4.3 | 11.3 | 0.00 | 0.00 | 0.00 | 45 | 1007.1 |
| 20260505040110 | 56 | 8 | 5.2 | 7.0 | 0.00 | 0.00 | 0.00 | 44 | 1007.2 |
| 20260505035606 | 56 | 343 | 8.7 | 14.8 | 0.00 | 0.00 | 0.00 | 43 | 1007.2 |
| 20260505035103 | 56 | 15 | 7.8 | 9.6 | 0.00 | 0.00 | 0.00 | 43 | 1007.2 |
| 20260505034600 | 56 | 1 | 7.0 | 9.6 | 0.00 | 0.00 | 0.00 | 44 | 1007.1 |
| 20260505034056 | 56 | 356 | 7.0 | 14.8 | 0.00 | 0.00 | 0.00 | 43 | 1007.0 |
| 20260505033553 | 56 | 350 | 9.6 | 17.4 | 0.00 | 0.00 | 0.00 | 43 | 1006.7 |
| 20260505033051 | 56 | 355 | 4.3 | 11.3 | 0.00 | 0.00 | 0.00 | 44 | 1007.5 |
| 20260505032549 | 57 | 4 | 6.1 | 17.4 | 0.00 | 0.00 | 0.00 | 43 | 1007.5 |
| 20260505032045 | 57 | 7 | 5.2 | 17.4 | 0.00 | 0.00 | 0.00 | 43 | 1007.1 |
| 20260505031542 | 57 | 346 | 8.7 | 15.6 | 0.00 | 0.00 | 0.00 | 43 | 1007.1 |
| 20260505031038 | 58 | 6 | 15.6 | 22.6 | 0.00 | 0.00 | 0.00 | 43 | 1006.7 |
| 20260505030536 | 58 | 4 | 12.2 | 20.9 | 0.00 | 0.00 | 0.00 | 43 | 1006.2 |
| 20260505030032 | 58 | 6 | 12.2 | 19.1 | 0.00 | 0.00 | 0.00 | 43 | 1006.7 |
| 20260505025527 | 58 | 351 | 5.2 | 11.3 | 0.00 | 0.00 | 0.00 | 44 | 1006.7 |
| 20260505025027 | 58 | 358 | 7.8 | 13.0 | 0.00 | 0.00 | 0.00 | 42 | 1006.7 |
| 20260505024523 | 58 | 339 | 10.4 | 15.6 | 0.00 | 0.00 | 0.00 | 42 | 1006.8 |
| 20260505024020 | 59 | 317 | 9.6 | 12.2 | 0.00 | 0.00 | 0.00 | 42 | 1006.7 |
| 20260505023517 | 59 | 344 | 6.1 | 8.7 | 0.00 | 0.00 | 0.00 | 42 | 1006.6 |
| 20260505023015 | 59 | 353 | 3.5 | 7.0 | 0.00 | 0.00 | 0.00 | 42 | 1006.1 |
| 20260505022513 | 60 | 344 | 4.3 | 13.0 | 0.00 | 0.00 | 0.00 | 41 | 1005.9 |
| 20260505022010 | 60 | 341 | 4.3 | 15.6 | 0.00 | 0.00 | 0.00 | 41 | 1005.7 |
| 20260505021506 | 60 | 302 | 9.6 | 18.2 | 0.00 | 0.00 | 0.00 | 41 | 1005.8 |
| 20260505021002 | 60 | 10 | 7.8 | 15.6 | 0.00 | 0.00 | 0.00 | 41 | 1005.6 |
| 20260505020457 | 61 | 351 | 4.3 | 13.9 | 0.00 | 0.00 | 0.00 | 41 | 1005.7 |
| 20260505015954 | 61 | 305 | 6.1 | 18.2 | 0.00 | 0.00 | 0.00 | 41 | 1005.3 |
| 20260505015451 | 63 | 286 | 6.1 | 14.8 | 0.00 | 0.00 | 0.00 | 39 | 1005.2 |
| 20260505014948 | 63 | 15 | 7.0 | 19.1 | 0.00 | 0.00 | 0.00 | 37 | 1005.1 |
| 20260505014445 | 63 | 7 | 9.6 | 19.1 | 0.00 | 0.00 | 0.00 | 36 | 1004.8 |
| 20260505013942 | 64 | 359 | 9.6 | 20.9 | 0.00 | 0.00 | 0.00 | 36 | 1004.8 |
| 20260505013439 | 64 | 23 | 15.6 | 20.0 | 0.00 | 0.00 | 0.00 | 35 | 1004.4 |
| 20260505012937 | 65 | 1 | 11.3 | 20.9 | 0.00 | 0.00 | 0.00 | 35 | 1004.5 |
| 20260505012436 | 65 | 352 | 12.2 | 13.9 | 0.00 | 0.00 | 0.00 | 34 | 1004.2 |
| 20260505011932 | 66 | 336 | 8.7 | 12.2 | 0.00 | 0.00 | 0.00 | 35 | 1003.8 |
| 20260505011428 | 66 | 7 | 11.3 | 19.1 | 0.00 | 0.00 | 0.00 | 34 | 1003.9 |
| 20260505010925 | 66 | 6 | 7.0 | 19.1 | 0.00 | 0.00 | 0.00 | 34 | 1003.5 |
| 20260505010420 | 67 | 5 | 6.1 | 14.8 | 0.00 | 0.00 | 0.00 | 34 | 1003.6 |
| 20260505005916 | 67 | 9 | 11.3 | 15.6 | 0.00 | 0.00 | 0.00 | 33 | 1003.4 |
| 20260505005413 | 68 | 11 | 4.3 | 13.9 | 0.00 | 0.00 | 0.00 | 34 | 1003.4 |
| 20260505004910 | 68 | 335 | 10.4 | 20.9 | 0.00 | 0.00 | 0.00 | 33 | 1003.2 |
| 20260505004407 | 68 | 309 | 8.7 | 20.0 | 0.00 | 0.00 | 0.00 | 33 | 1003.2 |
| 20260505003904 | 69 | 334 | 9.6 | 21.7 | 0.00 | 0.00 | 0.00 | 33 | 1002.8 |
| 20260505003401 | 70 | 9 | 6.1 | 15.6 | 0.00 | 0.00 | 0.00 | 33 | 1002.7 |
| 20260505002857 | 71 | 6 | 14.8 | 21.7 | 0.00 | 0.00 | 0.00 | 32 | 1002.3 |
| 20260505002354 | 71 | 5 | 4.3 | 14.8 | 0.00 | 0.00 | 0.00 | 33 | 1002.3 |
| 20260505001852 | 72 | 12 | 11.3 | 18.2 | 0.00 | 0.00 | 0.00 | 32 | 1002.3 |
| 20260505001349 | 72 | 353 | 8.7 | 14.8 | 0.00 | 0.00 | 0.00 | 32 | 1002.0 |
| 20260505000846 | 73 | 337 | 10.4 | 14.8 | 0.00 | 0.00 | 0.00 | 30 | 1002.1 |
| 20260505000344 | 73 | 354 | 7.0 | 14.8 | 0.00 | 0.00 | 0.00 | 31 | 1002.1 |
| 20260504235840 | 73 | 3 | 8.7 | 12.2 | 0.00 | 0.00 | 0.00 | 32 | 1002.0 |
| 20260504235338 | 74 | 333 | 7.8 | 18.2 | 0.00 | 0.00 | 0.00 | 31 | 1001.9 |
| 20260504234834 | 74 | 344 | 10.4 | 19.1 | 0.00 | 0.00 | 0.00 | 31 | 1002.0 |
| 20260504234332 | 75 | 341 | 12.2 | 20.0 | 0.00 | 0.00 | 0.00 | 30 | 1001.8 |
| 20260504233828 | 75 | 46 | 7.0 | 13.9 | 0.00 | 0.00 | 0.00 | 30 | 1001.8 |
| 20260504233324 | 75 | 1 | 5.2 | 19.1 | 0.00 | 0.00 | 0.00 | 30 | 1001.7 |
| 20260504232821 | 75 | 341 | 10.4 | 15.6 | 0.00 | 0.00 | 0.00 | 30 | 1001.5 |
| 20260504232318 | 75 | 337 | 13.0 | 20.9 | 0.00 | 0.00 | 0.00 | 31 | 1001.7 |
| 20260504231815 | 76 | 316 | 3.5 | 15.6 | 0.00 | 0.00 | 0.00 | 31 | 1001.5 |
| 20260504231311 | 76 | 299 | 7.8 | 20.0 | 0.00 | 0.00 | 0.00 | 31 | 1001.4 |
| 20260504230808 | 76 | 44 | 10.4 | 18.2 | 0.00 | 0.00 | 0.00 | 31 | 1001.5 |
| 20260504230306 | 76 | 20 | 12.2 | 17.4 | 0.00 | 0.00 | 0.00 | 31 | 1001.4 |
| 20260504225804 | 77 | 349 | 9.6 | 15.6 | 0.00 | 0.00 | 0.00 | 31 | 1001.2 |
| 20260504225300 | 77 | 295 | 13.9 | 18.2 | 0.00 | 0.00 | 0.00 | 31 | 1001.0 |
| 20260504224757 | 78 | 330 | 7.8 | 17.4 | 0.00 | 0.00 | 0.00 | 32 | 1001.1 |
| 20260504224255 | 78 | 328 | 13.0 | 20.9 | 0.00 | 0.00 | 0.00 | 31 | 1000.9 |
| 20260504223751 | 78 | 50 | 7.0 | 13.9 | 0.00 | 0.00 | 0.00 | 33 | 1001.0 |
| 20260504223247 | 78 | 306 | 8.7 | 13.9 | 0.00 | 0.00 | 0.00 | 33 | 1000.5 |
| 20260504222744 | 79 | 333 | 6.1 | 13.9 | 0.00 | 0.00 | 0.00 | 34 | 1000.7 |
| 20260504222241 | 79 | 5 | 5.2 | 14.8 | 0.00 | 0.00 | 0.00 | 34 | 1000.5 |
| 20260504221738 | 80 | 314 | 7.0 | 14.8 | 0.00 | 0.00 | 0.00 | 34 | 1000.3 |
| 20260504221235 | 81 | 348 | 7.0 | 11.3 | 0.00 | 0.00 | 0.00 | 35 | 1000.1 |
| 20260504220731 | 81 | 358 | 7.0 | 11.3 | 0.00 | 0.00 | 0.00 | 32 | 1000.2 |
| 20260504220229 | 80 | 309 | 1.7 | 9.6 | 0.00 | 0.00 | 0.00 | 34 | 1000.0 |
| 20260504215726 | 79 | 337 | 4.3 | 11.3 | 0.00 | 0.00 | 0.00 | 34 | 1000.0 |
| 20260504215217 | 79 | 324 | 1.7 | 11.3 | 0.00 | 0.00 | 0.00 | 36 | 1000.2 |
| 20260504214712 | 80 | 340 | 7.0 | 8.7 | 0.00 | 0.00 | 0.00 | 33 | 1000.2 |
| 20260504214209 | 80 | 338 | 5.2 | 12.2 | 0.00 | 0.00 | 0.00 | 33 | 1000.0 |
| 20260504213706 | 81 | 315 | 6.1 | 13.9 | 0.00 | 0.00 | 0.00 | 34 | 1000.0 |
| 20260504213202 | 82 | 284 | 11.3 | 15.6 | 0.00 | 0.00 | 0.00 | 30 | 999.9 |
| 20260504212659 | 83 | 319 | 7.8 | 11.3 | 0.00 | 0.00 | 0.00 | 28 | 999.6 |
| 20260504212155 | 83 | 284 | 8.7 | 9.6 | 0.00 | 0.00 | 0.00 | 26 | 999.7 |
| 20260504211653 | 83 | 304 | 3.5 | 7.8 | 0.00 | 0.00 | 0.00 | 25 | 999.8 |
| 20260504211149 | 82 | 280 | 3.5 | 7.8 | 0.00 | 0.00 | 0.00 | 27 | 999.8 |
| 20260504210647 | 83 | 65 | 7.0 | 9.6 | 0.00 | 0.00 | 0.00 | 26 | 999.8 |
| 20260504210143 | 82 | 285 | 4.3 | 11.3 | 0.00 | 0.00 | 0.00 | 26 | 999.9 |
| 20260504205641 | 83 | 289 | 4.3 | 7.8 | 0.00 | 0.00 | 0.00 | 27 | 999.9 |
| 20260504205138 | 82 | 322 | 6.1 | 9.6 | 0.00 | 0.00 | 0.00 | 26 | 999.8 |
| 20260504204637 | 81 | 304 | 4.3 | 7.8 | 0.00 | 0.00 | 0.00 | 28 | 1000.0 |
| 20260504204135 | 82 | 298 | 7.8 | 12.2 | 0.00 | 0.00 | 0.00 | 27 | 999.9 |
| 20260504203633 | 83 | 295 | 5.2 | 12.2 | 0.00 | 0.00 | 0.00 | 28 | 999.9 |
| 20260504203131 | 82 | 321 | 4.3 | 8.7 | 0.00 | 0.00 | 0.00 | 28 | 1000.0 |
| 20260504202626 | 82 | 293 | 7.8 | 11.3 | 0.00 | 0.00 | 0.00 | 27 | 999.9 |
| 20260504202123 | 82 | 285 | 4.3 | 8.7 | 0.00 | 0.00 | 0.00 | 28 | 1000.0 |
| 20260504201620 | 82 | 301 | 6.1 | 9.6 | 0.00 | 0.00 | 0.00 | 30 | 1000.0 |
| 20260504201118 | 82 | 250 | 4.3 | 14.8 | 0.00 | 0.00 | 0.00 | 29 | 1000.1 |
| 20260504200615 | 82 | 312 | 7.8 | 13.9 | 0.00 | 0.00 | 0.00 | 30 | 999.9 |
| 20260504200111 | 83 | 284 | 6.1 | 13.0 | 0.00 | 0.00 | 0.00 | 30 | 1000.1 |
| 20260504195607 | 82 | 285 | 4.3 | 7.0 | 0.00 | 0.00 | 0.00 | 32 | 1000.0 |
| 20260504195103 | 81 | 293 | 7.0 | 13.0 | 0.00 | 0.00 | 0.00 | 31 | 1000.3 |
| 20260504194600 | 80 | 295 | 5.2 | 12.2 | 0.00 | 0.00 | 0.00 | 32 | 1000.1 |
| 20260504194055 | 81 | 306 | 7.0 | 14.8 | 0.00 | 0.00 | 0.00 | 32 | 1000.1 |
| 20260504193552 | 82 | 262 | 2.6 | 9.6 | 0.00 | 0.00 | 0.00 | 33 | 1000.3 |
| 20260504193051 | 82 | 232 | 9.6 | 13.0 | 0.00 | 0.00 | 0.00 | 30 | 1000.2 |
| 20260504192549 | 83 | 356 | 3.5 | 15.6 | 0.00 | 0.00 | 0.00 | 34 | 1000.3 |
| 20260504192047 | 81 | 251 | 2.6 | 7.0 | 0.00 | 0.00 | 0.00 | 33 | 1000.2 |
| 20260504191544 | 80 | 326 | 3.5 | 8.7 | 0.00 | 0.00 | 0.00 | 33 | 1000.1 |
| 20260504191040 | 81 | 278 | 5.2 | 11.3 | 0.00 | 0.00 | 0.00 | 33 | 1000.1 |
| 20260504190537 | 82 | 244 | 7.8 | 18.2 | 0.00 | 0.00 | 0.00 | 32 | 1000.2 |
| 20260504190032 | 82 | 346 | 5.2 | 13.0 | 0.00 | 0.00 | 0.00 | 32 | 1000.2 |
| 20260504185530 | 80 | 266 | 4.3 | 6.1 | 0.00 | 0.00 | 0.00 | 34 | 1000.1 |
| 20260504185026 | 82 | 278 | 6.1 | 13.9 | 0.00 | 0.00 | 0.00 | 33 | 1000.4 |
| 20260504184521 | 81 | 258 | 4.3 | 9.6 | 0.00 | 0.00 | 0.00 | 32 | 1000.4 |
| 20260504184017 | 82 | 286 | 5.2 | 9.6 | 0.00 | 0.00 | 0.00 | 32 | 1000.1 |
| 20260504183515 | 82 | 205 | 3.5 | 7.0 | 0.00 | 0.00 | 0.00 | 37 | 1000.3 |
| 20260504183013 | 81 | 279 | 2.6 | 9.6 | 0.00 | 0.00 | 0.00 | 34 | 1000.3 |
| 20260504182509 | 81 | 40 | 3.5 | 12.2 | 0.00 | 0.00 | 0.00 | 33 | 1000.2 |
| 20260504182006 | 81 | 300 | 7.8 | 13.9 | 0.00 | 0.00 | 0.00 | 33 | 1000.3 |
| 20260504181503 | 81 | 232 | 4.3 | 9.6 | 0.00 | 0.00 | 0.00 | 32 | 1000.2 |
| 20260504181002 | 80 | 275 | 3.5 | 8.7 | 0.00 | 0.00 | 0.00 | 33 | 1000.2 |
| 20260504180500 | 82 | 306 | 4.3 | 18.2 | 0.00 | 0.00 | 0.00 | 33 | 1000.3 |
| 20260504175958 | 82 | 287 | 7.0 | 11.3 | 0.00 | 0.00 | 0.00 | 33 | 1000.3 |
| 20260504175455 | 81 | 254 | 6.1 | 7.8 | 0.00 | 0.00 | 0.00 | 35 | 1000.2 |
| 20260504174953 | 81 | 309 | 4.3 | 13.9 | 0.00 | 0.00 | 0.00 | 35 | 1000.2 |
| 20260504174450 | 80 | 301 | 5.2 | 8.7 | 0.00 | 0.00 | 0.00 | 38 | 1000.2 |
| 20260504173947 | 80 | 222 | 4.3 | 6.1 | 0.00 | 0.00 | 0.00 | 37 | 1000.4 |
| 20260504173443 | 81 | 259 | 7.8 | 9.6 | 0.00 | 0.00 | 0.00 | 36 | 1000.5 |
| 20260504172941 | 81 | 266 | 3.5 | 12.2 | 0.00 | 0.00 | 0.00 | 39 | 1000.5 |
| 20260504172437 | 80 | 283 | 2.6 | 7.8 | 0.00 | 0.00 | 0.00 | 39 | 1000.3 |
| 20260504171934 | 79 | 261 | 4.3 | 7.8 | 0.00 | 0.00 | 0.00 | 39 | 1000.5 |
| 20260504171431 | 79 | 232 | 6.1 | 7.8 | 0.00 | 0.00 | 0.00 | 37 | 1000.5 |
| 20260504170928 | 79 | 242 | 5.2 | 7.0 | 0.00 | 0.00 | 0.00 | 43 | 1000.5 |
| 20260504170424 | 79 | 221 | 2.6 | 7.0 | 0.00 | 0.00 | 0.00 | 44 | 1000.7 |
| 20260504160343 | 75 | 206 | 4.3 | 6.1 | 0.00 | 0.00 | 0.00 | 49 | 1000.8 |
| 20260504150808 | 73 | 218 | 2.6 | 4.3 | 0.00 | 0.00 | 0.00 | 53 | 1000.9 |
| 20260504150304 | 72 | 259 | 4.3 | 6.1 | 0.00 | 0.00 | 0.00 | 52 | 1001.1 |
| 20260504141229 | 66 | 256 | 2.6 | 6.1 | 0.00 | 0.00 | 0.00 | 61 | 1001.4 |
| 20260504140725 | 66 | 209 | 2.6 | 6.1 | 0.00 | 0.00 | 0.00 | 61 | 1001.4 |
| 20260504140221 | 65 | 218 | 2.6 | 5.2 | 0.00 | 0.00 | 0.00 | 62 | 1001.6 |
| 20260504130650 | 57 | 222 | 5.2 | 6.1 | 0.00 | 0.00 | 0.00 | 68 | 1001.5 |
| 20260504130146 | 57 | 230 | 2.6 | 5.2 | 0.00 | 0.00 | 0.00 | 69 | 1001.6 |
| 20260504120110 | 51 | 218 | 1.7 | 2.6 | 0.00 | 0.00 | 0.00 | 73 | 1002.2 |
| 20260504110538 | 50 | 219 | 0.9 | 0.9 | 0.00 | 0.00 | 0.00 | 75 | 1002.2 |
| 20260504100459 | 50 | 219 | 0.0 | 0.0 | 0.00 | 0.00 | 0.00 | 74 | 1002.8 |
| 20260504081858 | 51 | 215 | 0.9 | 1.7 | 0.00 | 0.00 | 0.00 | 70 | 1004.3 |
| 20260504081354 | 51 | 215 | 0.9 | 0.9 | 0.00 | 0.00 | 0.00 | 70 | 1004.2 |
| 20260504080850 | 51 | 215 | 0.9 | 1.7 | 0.00 | 0.00 | 0.00 | 69 | 1004.4 |
| 20260504080348 | 51 | 215 | 0.9 | 0.9 | 0.00 | 0.00 | 0.00 | 69 | 1004.6 |